This demonstration page uses our WeatherBlox Daily Observations layout. Learn more.

Left ArrowRight Arrow

31.84235, -102.49876

Hourly Observations for July 3, 2022

Temp ( °F °C ) Dew Point ( °F °C ) Humidity (%) Winds ( mph kmh ) Pressure ( in mb ) Visibility ( mi km ) Precip ( " mm )
12:53 am 00:53 Clear 80 26.7 61 16.1 52 52 SSE 9 15 29.85 1011 10 16 0.00 0.00
1:53 am 01:53 Clear 79 26.1 60 15.6 52 52 SSE 12 19 29.85 1011 10 16 0.00 0.00
2:53 am 02:53 Clear 78 25.6 60 15.6 54 54 S 7 11 29.85 1011 10 16 0.00 0.00
3:53 am 03:53 Clear 77 25 59 15 54 54 S 12 19 29.85 1011 10 16 0.00 0.00
4:53 am 04:53 Clear 76 24.4 59 15 56 56 SSE 9 15 29.86 1011 10 16 0.00 0.00
5:53 am 05:53 Clear 75 23.9 59 15 58 58 SSE 7 11 29.86 1011 10 16 0.00 0.00
6:53 am 06:53 Sunny 75 23.9 60 15.6 60 60 S 13 20 29.88 1012 10 16 0.00 0.00
7:53 am 07:53 Sunny 75 23.9 60 15.6 60 60 S 16 26 29.89 1012 10 16 0.00 0.00
8:53 am 08:53 Sunny 78 25.6 62 16.7 58 58 S 16 26 29.90 1013 10 16 0.00 0.00
9:53 am 09:53 Sunny 81 27.2 63 17.2 54 54 S 18 30 29.91 1013 10 16 0.00 0.00
10:53 am 10:53 Sunny 84 28.9 65 18.3 53 53 S 20 31 29.91 1013 10 16 0.00 0.00
11:53 am 11:53 Sunny 87 30.6 64 17.8 46 46 S 22 35 29.91 1013 10 16 0.00 0.00
12:53 pm 12:53 Sunny 92 33.3 61 16.1 36 36 SSE 16 26 29.90 1013 10 16 0.00 0.00
1:53 pm 13:53 Mostly Sunny 92 33.3 57 13.9 31 31 SSE 17 28 29.88 1012 10 16 0.00 0.00
2:53 pm 14:53 Mostly Sunny 93 33.9 57 13.9 30 30 S 13 20 29.86 1011 10 16 0.00 0.00
3:53 pm 15:53 Sunny 95 35 56 13.3 27 27 SSE 17 28 29.84 1011 10 16 0.00 0.00
4:53 pm 16:53 Sunny 94 34.4 55 12.8 27 27 SSE 17 28 29.82 1010 10 16 0.00 0.00
5:53 pm 17:53 Sunny 93 33.9 55 12.8 28 28 SSE 12 19 29.81 1010 10 16 0.00 0.00
6:53 pm 18:53 Partly Cloudy 93 33.9 55 12.8 28 28 SSE 17 28 29.81 1010 10 16 0.00 0.00
7:53 pm 19:53 Mostly Sunny 90 32.2 57 13.9 33 33 SE 15 24 29.83 1010 10 16 0.00 0.00
8:53 pm 20:53 Mostly Sunny 86 30 59 15 40 40 SSE 23 37 29.85 1011 10 16 0.00 0.00
9:53 pm 21:53 Clear 84 28.9 60 15.6 44 44 SSE 23 37 29.87 1012 10 16 0.00 0.00
10:53 pm 22:53 Clear 82 27.8 61 16.1 49 49 SSE 15 24 29.90 1013 10 16 0.00 0.00
11:53 pm 23:53 Clear 81 27.2 61 16.1 51 51 S 14 22 29.91 1013 10 16 0.00 0.00

Powered by AerisWeather